Location: *
(28.2408°N, 53.4600°E)
Time: 21:36:13
(UTC+00:00)

Okean 2 - Pass Details

Date: 22 September 2019
Orbit: 560 x 577 km, 82.5° (Epoch: 16 October)

Event Time Altitude Azimuth Distance (km) Brightness Sun altitude
Rises 14:40:10 0° 348° (NNW) 2,758 7.1 -4.5°
Reaches altitude 10° 14:42:22 10° 344° (NNW) 1,861 6.3 -5.0°
Maximum altitude 14:46:22 56° 267° (W) 679 4.3 -5.9°
Drops below altitude 10° 14:50:23 10° 189° (S) 1,860 6.1 -6.8°
Sets 14:52:35 0° 184° (S) 2,757 6.9 -7.3°
